Current weather by "City, St" or "zip code"  
 

Current Conditions: McConnell Air Force Base, KS

Overcast


36.0 F

Last Updated on Oct 24 2020, 10:56 am CDT
Humidity: 68%
Wind Speed: E 8.1 mph
Barometer 30.21 in
Dewpoint: 26.8 F
Visibility: 10.00 mi
Precip: --
Heat Index: NA
Wind Chill: 30 F
Current conditions at:

McConnell Air Force Base, KS (KIAB)

Lat: 37.61667 Lon: 97.26667

Local Radar Image active severe weather and emergency alerts image image weather storm and storm spotter reports image weather observation monitoring service image
Local
Radar
Active
Alerts
Storm Reports Obs
Monitoring

Sign-up For Email & Text Message Weather Alert Notification Services



Advertise Here

Observation History for McConnell Air Force Base, KS


Time Wind
(mph)
Vis
(mi)
Weather Precip (in) Temperature (F) Relative
Humidity
Wind
Chill
(F)
Heat
Index
(F)
Pressure
Air Dwpt altimeter
(in)
sea level
(mb)
Rmks
10:56 am CDT E 8.1 10.00 Overcast -- 36.0 26.8 68% 30 NA 30.21 1024.2
9:56 am CDT E 6.9 10.00 Overcast -- 36.0 27.0 70% 30 NA 30.22 1024.6
8:56 am CDT E 6.9 10.00 Overcast -- 36.0 27.1 71% 30 NA 30.21 1024.2
7:56 am CDT E 5.8 10.00 Overcast -- 36.0 26.8 70% 31 NA 30.22 1024.6
6:56 am CDT E 6.9 10.00 Overcast -- 36.0 26.6 69% 30 NA 30.23 1024.9
5:56 am CDT E 6.9 10.00 Overcast -- 36.0 26.1 67% 30 NA 30.24 1025.1
4:56 am CDT NE 8.1 10.00 Overcast -- 36.0 25.9 66% 30 NA 30.26 1025.8
3:56 am CDT NE 9.2 10.00 Overcast -- 37.0 25.9 65% 30 NA 30.28 1026.4
2:56 am CDT NE 10.4 10.00 Overcast -- 37.0 25.7 64% 30 NA 30.30 1027.1
1:56 am CDT NE 11.5 10.00 Overcast -- 37.0 26.4 66% 29 NA 30.32 1027.8
12:56 am CDT NE 13.8 10.00 Overcast -- 37.0 26.1 65% 28 NA 30.33 1028.2
11:56 pm CDT NE 12.7 10.00 Overcast -- 37.0 26.4 65% 29 NA 30.36 1029.3
10:56 pm CDT N 18.4 G 21.9 10.00 Overcast -- 38.0 26.6 63% 28 NA 30.36 1029.3
9:56 pm CDT N 13.8 10.00 Overcast -- 39.0 26.6 62% 31 NA 30.35 1029.0
8:56 pm CDT N 16.1 10.00 Overcast -- 40.0 27.1 61% 32 NA 30.36 1029.4
7:56 pm CDT N 16.1 10.00 Overcast -- 40.0 27.3 60% 32 NA 30.35 1028.9
6:56 pm CDT N 18.4 G 26.5 10.00 Overcast -- 41.0 28.2 60% 32 NA 30.33 1028.2
5:56 pm CDT NE 17.3 G 25.3 10.00 Overcast -- 42.0 28.6 58% 34 NA 30.33 1028.2
4:56 pm CDT NE 18.4 G 25.3 10.00 Overcast -- 44.0 29.1 56% 36 NA 30.33 1028.1
3:56 pm CDT NE 19.6 G 27.6 10.00 Overcast -- 45.0 29.7 56% 37 NA 30.31 1027.4
2:56 pm CDT N 19.6 G 26.5 10.00 Overcast -- 45.0 30.6 57% 37 NA 30.31 1027.4
1:56 pm CDT N 23.0 G 29.9 10.00 Overcast and Breezy -- 43.0 30.6 61% 34 NA 30.31 1027.4
12:56 pm CDT N 21.9 G 31.1 10.00 Overcast and Breezy -- 41.0 30.6 66% 31 NA 30.34 1028.3
11:56 am CDT N 20.7 G 27.6 10.00 Overcast and Breezy -- 40.0 31.3 71% 30 NA 30.34 1028.3

Regional Weather Observation


Wichita - Wichita Dwight D. Eisenhower National Airport, KS (KICT)

Overcast
37.0 F

McConnell Air Force Base, KS (KIAB)

Overcast
36.0 F

Newton, Newton City/County Airport, KS (KEWK)

Overcast
34.0 F

Hutchinson, Hutchinson Municipal Airport, KS (KHUT)

Overcast
36.0 F

Winfield / Arkansas City, Strother Field, KS (KWLD)

Overcast
38.0 F

Salina, Salina Municipal Airport, KS (KSLN)

Overcast
36.0 F